Regional Weather Roundup
Issued by NWS

Home | Current Version | Previous Version | Graphics & Text | Print | Product List | Glossary On
Versions: 1 2 3 4 5 6 7 8 9 10 11 12 13 14 15 16 17 18 19 20 21 22 23 24 25 26 27 28 29 30 31 32 33 34 35 36 37 38 39 40 41 42 43 44 45 46 47 48 49 50
000
ASUS43 KMKX 012207
RWRWI

WISCONSIN REGIONAL WEATHER ROUNDUP
NATIONAL WEATHER SERVICE MILWAUKEE/SULLIVAN WI
500 PM CDT MON JUN 01 2015

NOTE: "FAIR" INDICATES FEW OR NO CLOUDS BELOW 12,000 FEET WITH NO
SIGNIFICANT WEATHER AND/OR OBSTRUCTIONS TO VISIBILITY.

WIZ001-002-006>008-014>016-023>028-012300-
NORTHWEST WISCONSIN

CITY           SKY/WX    TMP DP  RH WIND       PRES   REMARKS
SUPERIOR ARPT  SUNNY     49  34  56 NE9       30.22F
ASHLAND        SUNNY     59  36  42 NE14      30.21F
HAYWARD        SUNNY     68  33  27 S12       30.18F
SIREN          SUNNY     68  34  28 S13       30.18F
CUMBERLAND     SUNNY     64  37  36 SE9       30.19F
RICE LAKE      SUNNY     68  37  32 SE7G18    30.19F
CHETEK         SUNNY     68  43  40 E9G17     30.19F
LADYSMITH      MOSUNNY   67  41  38 S7G16     30.22F
EAU CLAIRE     SUNNY     69  40  34 S12       30.17F
MENOMONIE      SUNNY     69  42  37 S8G18     30.18F
NEW RICHMOND   MOSUNNY   67  40  37 S10       30.18F
OSCEOLA        MOSUNNY   69  39  34 SE13      30.19F
$$

WIZ003>005-009-010-017-018-012300-
NORTH CENTRAL WISCONSIN

CITY           SKY/WX    TMP DP  RH WIND       PRES   REMARKS
MANITOWISH WTR SUNNY     66  31  26 S9        30.21F
ARBOR VITAE    SUNNY     67  28  23 S5        30.22S
WOODRUFF       SUNNY     67  28  23 S5        30.22S
RHINELANDER    SUNNY     66  30  26 VRB7      30.23F
EAGLE RIVER    SUNNY     67  24  19 E8        30.22F
LAND O LAKES   SUNNY     68  24  19 SE8       30.22F
PHILLIPS       SUNNY     67  38  35 S9        30.21S
TOMAHAWK       SUNNY     65  34  31 SE3       30.23F
MEDFORD        MOSUNNY   64  42  45 S6        30.22F
MERRILL        SUNNY     65  35  32 S6        30.24F
$$

WIZ029-030-035-036-043>047-012300-
CENTRAL WISCONSIN

CITY           SKY/WX    TMP DP  RH WIND       PRES   REMARKS
WAUSAU         SUNNY     66  35  31 VRB3      30.21F
MOSINEE        SUNNY     64  36  34 E6        30.23F
MARSHFIELD     SUNNY     66  37  34 E9        30.22F
STEVENS POINT  SUNNY     64  32  30 E6        30.23F
WAUPACA        SUNNY     68  34  28 E9        30.24F
WAUTOMA        NOT AVBL
WISC RAPIDS    SUNNY     68  24  19 S10       30.22F
CAMP DOUGLAS   NOT AVBL
$$

WIZ011>013-019>022-031-037>040-048>050-012300-
NORTHEAST WISCONSIN

CITY           SKY/WX    TMP DP  RH WIND       PRES   REMARKS
ANTIGO         SUNNY     63  39  41 S9        30.25S
SHAWANO        SUNNY     66  36  32 NE9       30.25F
OCONTO         SUNNY     63  39  41 E8        30.26F
STURGEON BAY   SUNNY     61  36  39 NE8       30.29S
GREEN BAY      SUNNY     64  40  41 NE10      30.25F
MANITOWOC      NOT AVBL
APPLETON       MOSUNNY   64  32  29 E12       30.24F
CLINTONVILLE   SUNNY     64  34  32 E8        30.25S
OSHKOSH        SUNNY     64  35  34 NE9       30.23F
$$

WIZ032>034-041-042-053>061-012300-
SOUTHWEST WISCONSIN

CITY           SKY/WX    TMP DP  RH WIND       PRES   REMARKS
LA CROSSE      SUNNY     71  33  24 E12       30.18F
SPARTA         SUNNY     69  32  25 E9        30.20F
VIROQUA        SUNNY     68  33  27 S8        30.20F
BOSCOBEL       SUNNY     71  37  28 E9        30.18F
PRAIRIE DU CHI SUNNY     69  33  26 E6        30.17F
PLATTEVILLE    SUNNY     68  38  33 E12       30.19S
$$

WIZ056-057-062-063-064-067-068-012300-
SOUTH CENTRAL WISCONSIN

CITY           SKY/WX    TMP DP  RH WIND       PRES   REMARKS
REEDSBURG      SUNNY     66  38  36 SE8       30.20F
BARABOO/DELLS  SUNNY     66  36  32 E10       30.21F
LONE ROCK      NOT AVBL
MINERAL POINT  SUNNY     68  34  28 E10       30.20S
MADISON        MOSUNNY   65  30  27 SE10      30.21S
MIDDLETON      SUNNY     67  31  25 E10G16    30.21F
WATERTOWN      SUNNY    N/A N/A N/A E13       30.21F
MONROE         SUNNY     64  37  36 E9G18     30.19S
JANESVILLE     SUNNY     66  32  28 E12G17    30.19F
$$

WIZ051-052-058>065-066-070>072-012300-
SOUTHEAST WISCONSIN

CITY           SKY/WX    TMP DP  RH WIND       PRES   REMARKS
MILWAUKEE      MOSUNNY   55  34  45 NE12      30.24F
WAUKESHA       SUNNY     59  28  31 E7        30.24F
MILWAUKEE/TIMM SUNNY     59  25  27 NE10      30.24F
RACINE         SUNNY     55  37  50 N13       30.25F
BURLINGTON     SUNNY     59  34  38 E10G17    30.22F
KENOSHA        SUNNY     60  37  42 NE10      30.22F
FOND DU LAC    SUNNY     64  31  28 SE7       30.23F
SHEBOYGAN      SUNNY     59  39  47 NE12      30.25F
WEST BEND      SUNNY     61  30  31 E9        30.24S
JUNEAU         SUNNY     64  34  32 E12       30.24S
$$

LSZ147-162-012300-
LAKE SUPERIOR

STATION/POSITION TIME  TEMP    WIND        PRES    WAVE
                       AIR SEA DIR/SP/G            HT/PER
                 (UTC) (F)     (DEG/KT/KT) (MB)    (FT/S)
W MID LAKE BUOY  2050   39 37   40/  8/ 10   N/A     0
DEVILS ISLAND    2100   42      70/ 11/ 12   N/A
PORT WING        2140   46      30/ 19/ 21   N/A
SAXON HARBOR     2140   49      10/  7/  9   N/A
$$

LMZ867-665-643>646-012300-
LAKE MICHIGAN

STATION/POSITION TIME  TEMP    WIND        PRES    WAVE
                       AIR SEA DIR/SP/G            HT/PER
                 (UTC) (F)     (DEG/KT/KT) (MB)    (FT/S)
CHAMBERS ISLAND  2100   57     360/  5/  6   N/A
N MID LAKE BUOY  2050   42 37  330/  4/  6   N/A     0
NORTHPORT PIER   2100   52     130/  5/  6   N/A
SISTER BAY       2048   65     110/  9/ 12   N/A
ALGOMA LAKESHORE 2024           70/ 12/ 13   N/A
KEWAUNEE LAKESHO 2100   52      30/  6/ 12   N/A
SHEBOYGAN LAKESH 2100   47      10/  9/  9   N/A
PORT WASHINGTON  2100   52      40/  9/ 11   N/A
ATWATER BUOY     2100   46     350/  8/ 10   N/A
MILWAUKEE LAKESH 2100   50      30/ 12/ 14   N/A
S MID LAKE BUOY  2050   42 39  340/ 10/ 12   N/A     1/ 3
KENOSHA   LAKESH 2100   49      20/ 13/ 15   N/A
$$

TC  - TEMPERATURE IN CELSIUS
VSB - VISIBILITY IN STATUTE MILES
WCI - WIND CHILL INDEX
HX  - HEAT INDEX




USA.gov is the U.S. government's official web portal to all federal, state and local government web resources and services.